{"data":{"norad_id":48985,"epoch":"2026-05-25T04:33:08.161056Z","epoch_age_seconds":54515,"freshness":"FRESH","line1":"1 48985U 21060U   26145.18967779  .00000019  00000+0  16817-4 0  9991","line2":"2 48985  87.9106 233.3370 0001873  94.7739 265.3606 13.16593300236567","mean_motion":13.165933,"eccentricity":0.0001873,"inclination_deg":87.9106,"raan_deg":233.337,"arg_perigee_deg":94.7739,"mean_anomaly_deg":265.3606,"bstar":1.6817e-5,"rev_number":23656,"period_min":109.37318304749,"perigee_km":1196.3413726786,"apogee_km":1199.1793038215,"semimajor_km":7575.89733825,"source":"CELESTRAK","updated_at":"2026-05-25T13:38:22.474832Z"}}